Time,TemperatureF,DewpointF,PressureIn,WindDirection,WindDirectionDegrees,WindSpeedMPH,WindSpeedGustMPH,Humidity,HourlyPrecipIn,Conditions,Clouds,dailyrainin,SoftwareType,DateUTC
2013-06-17 00:03:00,73.8,60.0,29.62,North,0,0.0,0.0,62,0.00,,,0.00,WUHU216HW,2013-06-17 05:03:00,
2013-06-17 00:08:00,73.8,60.4,29.63,North,0,0.0,0.0,63,0.00,,,0.00,WUHU216HW,2013-06-17 05:08:00,
2013-06-17 00:13:00,73.8,60.4,29.63,North,0,0.0,0.0,63,0.00,,,0.00,WUHU216HW,2013-06-17 05:13:00,
2013-06-17 00:18:00,73.6,60.2,29.62,North,0,0.0,0.0,63,0.00,,,0.00,WUHU216HW,2013-06-17 05:18:00,
2013-06-17 00:23:00,73.6,60.2,29.62,North,0,0.0,0.0,63,0.00,,,0.00,WUHU216HW,2013-06-17 05:23:00,
2013-06-17 00:28:00,73.4,60.0,29.62,North,0,0.0,0.0,63,0.00,,,0.00,WUHU216HW,2013-06-17 05:28:00,
2013-06-17 00:33:00,73.1,60.1,29.62,North,0,0.0,0.0,64,0.00,,,0.00,WUHU216HW,2013-06-17 05:33:00,
2013-06-17 00:38:00,73.1,60.1,29.62,North,0,0.0,0.0,64,0.00,,,0.00,WUHU216HW,2013-06-17 05:38:00,
2013-06-17 00:43:00,73.1,60.6,29.62,North,0,0.0,0.0,65,0.00,,,0.00,WUHU216HW,2013-06-17 05:43:00,
2013-06-17 00:48:00,73.1,61.0,29.62,North,0,0.0,0.0,66,0.00,,,0.00,WUHU216HW,2013-06-17 05:48:00,
2013-06-17 00:53:00,72.9,60.8,29.62,North,0,0.0,0.0,66,0.00,,,0.00,WUHU216HW,2013-06-17 05:53:00,
2013-06-17 00:58:00,72.7,60.7,29.62,North,0,0.0,0.0,66,0.00,,,0.00,WUHU216HW,2013-06-17 05:58:00,
2013-06-17 01:03:00,72.7,61.1,29.61,North,0,0.0,0.0,67,0.00,,,0.00,WUHU216HW,2013-06-17 06:03:00,
2013-06-17 01:08:00,72.4,60.8,29.62,North,0,0.0,0.0,67,0.00,,,0.00,WUHU216HW,2013-06-17 06:08:00,
2013-06-17 01:13:00,72.4,61.2,29.62,North,0,0.0,0.0,68,0.00,,,0.00,WUHU216HW,2013-06-17 06:13:00,
2013-06-17 01:18:00,72.2,61.0,29.62,North,0,0.0,0.0,68,0.00,,,0.00,WUHU216HW,2013-06-17 06:18:00,
2013-06-17 01:23:00,72.0,60.8,29.62,North,0,0.0,0.0,68,0.00,,,0.00,WUHU216HW,2013-06-17 06:23:00,
2013-06-17 01:28:00,72.2,61.5,29.63,North,0,0.0,0.0,69,0.00,,,0.00,WUHU216HW,2013-06-17 06:28:00,
2013-06-17 01:33:00,72.0,61.7,29.62,North,0,0.0,0.0,70,0.00,,,0.00,WUHU216HW,2013-06-17 06:33:00,
2013-06-17 01:38:00,72.0,62.1,29.62,North,0,0.0,0.0,71,0.00,,,0.00,WUHU216HW,2013-06-17 06:38:00,
2013-06-17 01:43:00,72.0,61.7,29.62,North,0,0.0,0.0,70,0.00,,,0.00,WUHU216HW,2013-06-17 06:43:00,
2013-06-17 01:48:00,72.0,62.1,29.62,North,0,0.0,0.0,71,0.00,,,0.00,WUHU216HW,2013-06-17 06:48:00,
2013-06-17 01:53:00,71.8,61.6,29.63,North,0,0.0,0.0,70,0.00,,,0.00,WUHU216HW,2013-06-17 06:53:00,
2013-06-17 01:58:00,71.5,60.8,29.63,North,0,0.0,0.0,69,0.00,,,0.00,WUHU216HW,2013-06-17 06:58:00,
2013-06-17 02:03:00,71.5,60.8,29.63,North,0,0.0,0.0,69,0.00,,,0.00,WUHU216HW,2013-06-17 07:03:00,
2013-06-17 02:08:00,71.5,60.8,29.63,North,0,0.0,0.0,69,0.00,,,0.00,WUHU216HW,2013-06-17 07:08:00,
2013-06-17 02:13:00,71.6,60.9,29.63,North,0,0.0,0.0,69,0.00,,,0.00,WUHU216HW,2013-06-17 07:13:00,
2013-06-17 02:18:00,71.6,60.9,29.62,North,0,0.0,0.0,69,0.00,,,0.00,WUHU216HW,2013-06-17 07:18:00,
2013-06-17 02:23:00,71.6,60.9,29.62,North,0,0.0,0.0,69,0.00,,,0.00,WUHU216HW,2013-06-17 07:23:00,
2013-06-17 02:28:00,71.6,60.9,29.62,North,0,0.0,0.0,69,0.00,,,0.00,WUHU216HW,2013-06-17 07:28:00,
2013-06-17 02:33:00,71.8,60.7,29.62,North,0,0.0,0.0,68,0.00,,,0.00,WUHU216HW,2013-06-17 07:33:00,
2013-06-17 02:38:00,71.8,60.7,29.61,North,0,0.0,0.0,68,0.00,,,0.00,WUHU216HW,2013-06-17 07:38:00,
2013-06-17 02:43:00,71.8,61.1,29.61,North,0,0.0,0.0,69,0.00,,,0.00,WUHU216HW,2013-06-17 07:43:00,
2013-06-17 02:48:00,71.8,61.1,29.61,North,0,0.0,0.0,69,0.00,,,0.00,WUHU216HW,2013-06-17 07:48:00,
2013-06-17 02:53:00,71.6,61.4,29.61,North,0,0.0,0.0,70,0.00,,,0.00,WUHU216HW,2013-06-17 07:53:00,
2013-06-17 02:58:00,71.6,61.4,29.61,North,0,0.0,0.0,70,0.00,,,0.00,WUHU216HW,2013-06-17 07:58:00,
2013-06-17 03:03:00,71.5,61.2,29.62,North,0,0.0,0.0,70,0.00,,,0.00,WUHU216HW,2013-06-17 08:03:00,
2013-06-17 03:08:00,71.1,60.8,29.62,North,0,0.0,0.0,70,0.00,,,0.00,WUHU216HW,2013-06-17 08:08:00,
2013-06-17 03:13:00,70.9,60.7,29.62,North,0,0.0,0.0,70,0.00,,,0.00,WUHU216HW,2013-06-17 08:13:00,
2013-06-17 03:18:00,70.9,61.0,29.62,North,0,0.0,0.0,71,0.00,,,0.00,WUHU216HW,2013-06-17 08:18:00,
2013-06-17 03:24:00,70.6,60.7,29.62,North,0,0.0,0.0,71,0.00,,,0.00,WUHU216HW,2013-06-17 08:24:00,
2013-06-17 03:29:00,70.4,60.5,29.62,North,0,0.0,0.0,71,0.00,,,0.00,WUHU216HW,2013-06-17 08:29:00,
2013-06-17 03:34:00,70.2,60.7,29.61,North,0,0.0,0.0,72,0.00,,,0.00,WUHU216HW,2013-06-17 08:34:00,
2013-06-17 03:39:00,69.8,60.3,29.61,North,0,0.0,0.0,72,0.00,,,0.00,WUHU216HW,2013-06-17 08:39:00,
2013-06-17 03:44:00,69.8,60.3,29.61,North,0,0.0,0.0,72,0.00,,,0.00,WUHU216HW,2013-06-17 08:44:00,
2013-06-17 03:49:00,69.7,60.2,29.61,North,0,0.0,0.0,72,0.00,,,0.00,WUHU216HW,2013-06-17 08:49:00,
2013-06-17 03:54:00,69.7,60.2,29.60,North,0,0.0,0.0,72,0.00,,,0.00,WUHU216HW,2013-06-17 08:54:00,
2013-06-17 03:59:00,69.7,60.2,29.61,North,0,0.0,0.0,72,0.00,,,0.00,WUHU216HW,2013-06-17 08:59:00,
2013-06-17 04:04:00,69.5,59.7,29.60,North,0,0.0,0.0,71,0.00,,,0.00,WUHU216HW,2013-06-17 09:04:00,
2013-06-17 04:09:00,69.7,59.4,29.60,North,0,0.0,0.0,70,0.00,,,0.00,WUHU216HW,2013-06-17 09:09:00,
2013-06-17 04:14:00,69.8,59.6,29.61,North,0,0.0,0.0,70,0.00,,,0.00,WUHU216HW,2013-06-17 09:14:00,
2013-06-17 04:19:00,69.8,59.6,29.61,North,0,0.0,0.0,70,0.00,,,0.00,WUHU216HW,2013-06-17 09:19:00,
2013-06-17 04:24:00,70.0,59.8,29.60,North,0,0.0,0.0,70,0.00,,,0.00,WUHU216HW,2013-06-17 09:24:00,
2013-06-17 04:29:00,70.2,59.9,29.60,North,0,0.0,0.0,70,0.00,,,0.00,WUHU216HW,2013-06-17 09:29:00,
2013-06-17 04:34:00,70.2,59.9,29.60,North,0,0.0,0.0,70,0.00,,,0.00,WUHU216HW,2013-06-17 09:34:00,
2013-06-17 04:39:00,70.0,60.1,29.61,North,0,0.0,0.0,71,0.00,,,0.00,WUHU216HW,2013-06-17 09:39:00,
2013-06-17 04:44:00,69.7,59.8,29.61,North,0,0.0,0.0,71,0.00,,,0.00,WUHU216HW,2013-06-17 09:44:00,
2013-06-17 04:49:00,69.3,59.9,29.62,North,0,0.0,0.0,72,0.00,,,0.00,WUHU216HW,2013-06-17 09:49:00,
2013-06-17 04:54:00,69.1,60.0,29.62,North,0,0.0,0.0,73,0.00,,,0.00,WUHU216HW,2013-06-17 09:54:00,
2013-06-17 04:59:00,68.8,60.1,29.62,North,0,0.0,0.0,74,0.00,,,0.00,WUHU216HW,2013-06-17 09:59:00,
2013-06-17 05:04:00,68.6,59.9,29.62,North,0,0.0,0.0,74,0.00,,,0.00,WUHU216HW,2013-06-17 10:04:00,
2013-06-17 05:09:00,68.6,59.9,29.62,North,0,0.0,0.0,74,0.00,,,0.00,WUHU216HW,2013-06-17 10:09:00,
2013-06-17 05:14:00,68.4,60.2,29.62,North,0,0.0,0.0,75,0.00,,,0.00,WUHU216HW,2013-06-17 10:14:00,
2013-06-17 05:19:00,68.4,60.2,29.62,North,0,0.0,0.0,75,0.00,,,0.00,WUHU216HW,2013-06-17 10:19:00,
2013-06-17 05:24:00,68.4,60.2,29.63,North,0,0.0,0.0,75,0.00,,,0.00,WUHU216HW,2013-06-17 10:24:00,
2013-06-17 05:29:00,68.2,60.0,29.63,North,0,0.0,0.0,75,0.00,,,0.00,WUHU216HW,2013-06-17 10:29:00,
2013-06-17 05:34:00,68.0,60.2,29.63,North,0,0.0,0.0,76,0.00,,,0.00,WUHU216HW,2013-06-17 10:34:00,
2013-06-17 05:39:00,68.0,60.2,29.63,North,0,0.0,0.0,76,0.00,,,0.00,WUHU216HW,2013-06-17 10:39:00,
2013-06-17 05:44:00,68.0,60.2,29.63,North,0,0.0,0.0,76,0.00,,,0.00,WUHU216HW,2013-06-17 10:44:00,
2013-06-17 05:49:00,67.9,60.0,29.64,North,0,0.0,0.0,76,0.00,,,0.00,WUHU216HW,2013-06-17 10:49:00,
2013-06-17 05:54:00,67.7,59.9,29.64,North,0,0.0,0.0,76,0.00,,,0.00,WUHU216HW,2013-06-17 10:54:00,
2013-06-17 05:59:00,67.7,59.9,29.65,North,0,0.0,0.0,76,0.00,,,0.00,WUHU216HW,2013-06-17 10:59:00,
2013-06-17 06:04:00,67.5,59.7,29.65,North,0,0.0,0.0,76,0.00,,,0.00,WUHU216HW,2013-06-17 11:04:00,
2013-06-17 06:09:00,67.5,60.0,29.65,North,0,0.0,0.0,77,0.00,,,0.00,WUHU216HW,2013-06-17 11:09:00,
2013-06-17 06:14:00,67.3,59.9,29.65,North,0,0.0,0.0,77,0.00,,,0.00,WUHU216HW,2013-06-17 11:14:00,
2013-06-17 06:19:00,67.3,59.9,29.66,North,0,0.0,0.0,77,0.00,,,0.00,WUHU216HW,2013-06-17 11:19:00,
2013-06-17 06:24:00,67.3,59.9,29.66,North,0,0.0,0.0,77,0.00,,,0.00,WUHU216HW,2013-06-17 11:24:00,
2013-06-17 06:29:00,67.3,59.9,29.66,North,0,0.0,0.0,77,0.00,,,0.00,WUHU216HW,2013-06-17 11:29:00,
2013-06-17 06:34:00,67.3,59.9,29.66,North,0,0.0,0.0,77,0.00,,,0.00,WUHU216HW,2013-06-17 11:34:00,
2013-06-17 06:39:00,67.3,60.3,29.67,North,0,0.0,0.0,78,0.00,,,0.00,WUHU216HW,2013-06-17 11:39:00,
2013-06-17 06:44:00,67.5,60.5,29.67,North,0,0.0,0.0,78,0.00,,,0.00,WUHU216HW,2013-06-17 11:44:00,
2013-06-17 06:49:00,67.5,60.0,29.67,North,0,0.0,0.0,77,0.00,,,0.00,WUHU216HW,2013-06-17 11:49:00,
2013-06-17 06:54:00,67.7,60.2,29.66,North,0,0.0,0.0,77,0.00,,,0.00,WUHU216HW,2013-06-17 11:54:00,
2013-06-17 06:59:00,67.9,60.4,29.67,North,0,0.0,0.0,77,0.00,,,0.00,WUHU216HW,2013-06-17 11:59:00,
2013-06-17 07:04:00,67.9,60.4,29.67,North,0,0.0,0.0,77,0.00,,,0.00,WUHU216HW,2013-06-17 12:04:00,
2013-06-17 07:09:00,67.7,60.2,29.66,North,0,0.0,0.0,77,0.00,,,0.00,WUHU216HW,2013-06-17 12:09:00,
2013-06-17 07:14:00,67.7,60.2,29.66,North,0,0.0,0.0,77,0.00,,,0.00,WUHU216HW,2013-06-17 12:14:00,
2013-06-17 07:19:00,67.7,60.2,29.66,North,0,0.0,0.0,77,0.00,,,0.00,WUHU216HW,2013-06-17 12:19:00,
2013-06-17 07:24:00,67.9,60.4,29.67,North,0,0.0,0.0,77,0.00,,,0.00,WUHU216HW,2013-06-17 12:24:00,
2013-06-17 07:29:00,67.9,59.7,29.67,North,0,0.0,0.0,75,0.00,,,0.00,WUHU216HW,2013-06-17 12:29:00,
2013-06-17 07:34:00,68.0,59.5,29.67,North,0,0.0,0.0,74,0.00,,,0.00,WUHU216HW,2013-06-17 12:34:00,
2013-06-17 07:39:00,68.2,59.7,29.67,North,0,0.0,0.0,74,0.00,,,0.00,WUHU216HW,2013-06-17 12:39:00,
2013-06-17 07:44:00,68.8,60.5,29.67,North,0,0.0,0.0,75,0.00,,,0.00,WUHU216HW,2013-06-17 12:44:00,
2013-06-17 07:49:00,68.9,60.3,29.67,North,0,0.0,0.0,74,0.00,,,0.00,WUHU216HW,2013-06-17 12:49:00,
2013-06-17 07:54:00,69.5,60.8,29.67,North,0,0.0,0.0,74,0.00,,,0.00,WUHU216HW,2013-06-17 12:54:00,
2013-06-17 07:59:00,70.4,61.7,29.68,North,0,0.0,0.0,74,0.00,,,0.00,WUHU216HW,2013-06-17 12:59:00,
2013-06-17 08:04:00,70.9,62.2,29.68,North,0,0.0,0.0,74,0.00,,,0.00,WUHU216HW,2013-06-17 13:04:00,
2013-06-17 08:09:00,71.6,61.7,29.68,North,0,0.0,0.0,71,0.00,,,0.00,WUHU216HW,2013-06-17 13:09:00,
2013-06-17 08:14:00,72.7,62.8,29.68,North,0,0.0,0.0,71,0.00,,,0.00,WUHU216HW,2013-06-17 13:14:00,
2013-06-17 08:19:00,73.1,62.4,29.68,North,0,0.0,0.0,69,0.00,,,0.00,WUHU216HW,2013-06-17 13:19:00,
2013-06-17 08:24:00,73.4,61.4,29.68,North,0,0.0,0.0,66,0.00,,,0.00,WUHU216HW,2013-06-17 13:24:00,
2013-06-17 08:29:00,73.8,62.7,29.68,North,0,0.0,0.0,68,0.00,,,0.00,WUHU216HW,2013-06-17 13:29:00,
2013-06-17 08:34:00,74.3,64.0,29.68,North,0,0.0,0.0,70,0.00,,,0.00,WUHU216HW,2013-06-17 13:34:00,
2013-06-17 08:39:00,75.1,65.1,29.68,North,0,0.0,0.0,71,0.00,,,0.00,WUHU216HW,2013-06-17 13:39:00,
2013-06-17 08:44:00,76.3,66.2,29.68,North,0,0.0,0.0,71,0.00,,,0.00,WUHU216HW,2013-06-17 13:44:00,
2013-06-17 08:49:00,76.9,66.4,29.68,North,0,0.0,0.0,70,0.00,,,0.00,WUHU216HW,2013-06-17 13:49:00,
2013-06-17 08:54:00,77.4,66.5,29.68,North,0,0.0,0.0,69,0.00,,,0.00,WUHU216HW,2013-06-17 13:54:00,
2013-06-17 08:59:00,78.1,64.5,29.68,North,0,0.0,0.0,63,0.00,,,0.00,WUHU216HW,2013-06-17 13:59:00,
2013-06-17 09:04:00,78.5,64.5,29.68,North,0,0.0,0.0,62,0.00,,,0.00,WUHU216HW,2013-06-17 14:04:00,
2013-06-17 09:09:00,78.8,64.8,29.68,North,0,0.0,0.0,62,0.00,,,0.00,WUHU216HW,2013-06-17 14:09:00,
2013-06-17 09:14:00,79.9,65.8,29.68,North,0,0.0,0.0,62,0.00,,,0.00,WUHU216HW,2013-06-17 14:14:00,
2013-06-17 09:19:00,81.0,66.3,29.68,North,0,0.0,0.0,61,0.00,,,0.00,WUHU216HW,2013-06-17 14:19:00,
2013-06-17 09:24:00,81.5,66.3,29.68,North,0,0.0,0.0,60,0.00,,,0.00,WUHU216HW,2013-06-17 14:24:00,
2013-06-17 09:29:00,81.7,62.8,29.68,North,0,0.0,0.0,53,0.00,,,0.00,WUHU216HW,2013-06-17 14:29:00,
2013-06-17 09:34:00,81.4,62.0,29.68,North,0,0.0,0.0,52,0.00,,,0.00,WUHU216HW,2013-06-17 14:34:00,
2013-06-17 09:39:00,80.8,62.6,29.68,North,0,0.0,0.0,54,0.00,,,0.00,WUHU216HW,2013-06-17 14:39:00,
2013-06-17 09:44:00,80.6,60.3,29.68,North,0,0.0,0.0,50,0.00,,,0.00,WUHU216HW,2013-06-17 14:44:00,
2013-06-17 09:49:00,80.5,60.7,29.68,North,0,0.0,0.0,51,0.00,,,0.00,WUHU216HW,2013-06-17 14:49:00,
2013-06-17 09:54:00,80.6,60.3,29.68,North,0,0.0,0.0,50,0.00,,,0.00,WUHU216HW,2013-06-17 14:54:00,
2013-06-17 09:59:00,80.6,59.0,29.68,North,0,0.0,0.0,48,0.00,,,0.00,WUHU216HW,2013-06-17 14:59:00,
2013-06-17 10:04:00,80.3,58.1,29.67,North,0,0.0,0.0,47,0.00,,,0.00,WUHU216HW,2013-06-17 15:04:00,
2013-06-17 10:09:00,80.3,57.5,29.67,North,0,0.0,0.0,46,0.00,,,0.00,WUHU216HW,2013-06-17 15:09:00,
2013-06-17 10:14:00,80.3,58.1,29.67,North,0,0.0,0.0,47,0.00,,,0.00,WUHU216HW,2013-06-17 15:14:00,
2013-06-17 10:19:00,80.3,58.1,29.67,North,0,0.0,0.0,47,0.00,,,0.00,WUHU216HW,2013-06-17 15:19:00,
2013-06-17 10:24:00,80.5,59.0,29.67,North,0,0.0,0.0,48,0.00,,,0.00,WUHU216HW,2013-06-17 15:24:00,
2013-06-17 10:29:00,80.6,58.5,29.67,North,0,0.0,0.0,47,0.00,,,0.00,WUHU216HW,2013-06-17 15:29:00,
2013-06-17 10:34:00,80.6,58.5,29.67,North,0,0.0,0.0,47,0.00,,,0.00,WUHU216HW,2013-06-17 15:34:00,
2013-06-17 10:39:00,80.8,58.1,29.67,North,0,0.0,0.0,46,0.00,,,0.00,WUHU216HW,2013-06-17 15:39:00,
2013-06-17 10:44:00,80.8,58.1,29.67,North,0,0.0,0.0,46,0.00,,,0.00,WUHU216HW,2013-06-17 15:44:00,
2013-06-17 10:49:00,80.8,58.6,29.67,North,0,0.0,0.0,47,0.00,,,0.00,WUHU216HW,2013-06-17 15:49:00,
2013-06-17 10:54:00,81.4,59.1,29.67,North,0,0.0,0.0,47,0.00,,,0.00,WUHU216HW,2013-06-17 15:54:00,
2013-06-17 10:59:00,81.4,59.1,29.67,North,0,0.0,0.0,47,0.00,,,0.00,WUHU216HW,2013-06-17 15:59:00,
2013-06-17 11:04:00,81.4,58.5,29.67,North,0,0.0,0.0,46,0.00,,,0.00,WUHU216HW,2013-06-17 16:04:00,
2013-06-17 11:09:00,81.5,58.1,29.67,North,0,0.0,0.0,45,0.00,,,0.00,WUHU216HW,2013-06-17 16:09:00,
2013-06-17 11:14:00,81.5,57.4,29.68,North,0,0.0,0.0,44,0.00,,,0.00,WUHU216HW,2013-06-17 16:14:00,
2013-06-17 11:19:00,81.5,59.3,29.67,North,0,0.0,0.0,47,0.00,,,0.00,WUHU216HW,2013-06-17 16:19:00,
2013-06-17 11:24:00,81.7,58.9,29.68,North,0,0.0,0.0,46,0.00,,,0.00,WUHU216HW,2013-06-17 16:24:00,
2013-06-17 11:29:00,81.7,58.2,29.68,North,0,0.0,0.0,45,0.00,,,0.00,WUHU216HW,2013-06-17 16:29:00,
2013-06-17 11:34:00,81.9,59.0,29.68,North,0,0.0,0.0,46,0.00,,,0.00,WUHU216HW,2013-06-17 16:34:00,
2013-06-17 11:39:00,82.3,59.3,29.68,North,0,0.0,0.0,46,0.00,,,0.00,WUHU216HW,2013-06-17 16:39:00,
2013-06-17 11:44:00,82.4,56.4,29.68,North,0,0.0,0.0,41,0.00,,,0.00,WUHU216HW,2013-06-17 16:44:00,
2013-06-17 11:49:00,82.4,56.4,29.68,North,0,0.0,0.0,41,0.00,,,0.00,WUHU216HW,2013-06-17 16:49:00,
2013-06-17 11:54:00,82.4,56.4,29.68,North,0,0.0,0.0,41,0.00,,,0.00,WUHU216HW,2013-06-17 16:54:00,
2013-06-17 11:59:00,82.6,57.2,29.68,North,0,0.0,0.0,42,0.00,,,0.00,WUHU216HW,2013-06-17 16:59:00,
2013-06-17 12:04:00,83.0,58.2,29.68,North,0,0.0,0.0,43,0.00,,,0.00,WUHU216HW,2013-06-17 17:04:00,
2013-06-17 12:09:00,83.2,57.7,29.68,North,0,0.0,0.0,42,0.00,,,0.00,WUHU216HW,2013-06-17 17:09:00,
2013-06-17 12:14:00,83.3,59.1,29.68,North,0,0.0,0.0,44,0.00,,,0.00,WUHU216HW,2013-06-17 17:14:00,
2013-06-17 12:19:00,83.7,57.6,29.68,North,0,0.0,0.0,41,0.00,,,0.00,WUHU216HW,2013-06-17 17:19:00,
2013-06-17 12:24:00,83.7,57.6,29.68,North,0,0.0,0.0,41,0.00,,,0.00,WUHU216HW,2013-06-17 17:24:00,
2013-06-17 12:29:00,83.7,57.6,29.68,North,0,0.0,0.0,41,0.00,,,0.00,WUHU216HW,2013-06-17 17:29:00,
2013-06-17 12:34:00,84.2,58.1,29.68,North,0,0.0,0.0,41,0.00,,,0.00,WUHU216HW,2013-06-17 17:34:00,
2013-06-17 12:39:00,84.2,57.4,29.68,North,0,0.0,0.0,40,0.00,,,0.00,WUHU216HW,2013-06-17 17:39:00,
2013-06-17 12:44:00,85.0,59.3,29.68,North,0,0.0,0.0,42,0.00,,,0.00,WUHU216HW,2013-06-17 17:44:00,
2013-06-17 12:49:00,85.0,58.1,29.68,North,0,0.0,0.0,40,0.00,,,0.00,WUHU216HW,2013-06-17 17:49:00,
2013-06-17 12:54:00,85.0,58.7,29.68,North,0,0.0,0.0,41,0.00,,,0.00,WUHU216HW,2013-06-17 17:54:00,
2013-06-17 12:59:00,85.3,57.6,29.67,North,0,0.0,0.0,39,0.00,,,0.00,WUHU216HW,2013-06-17 17:59:00,
2013-06-17 13:04:00,85.9,58.9,29.67,North,0,0.0,0.0,40,0.00,,,0.00,WUHU216HW,2013-06-17 18:04:00,
2013-06-17 13:09:00,85.9,58.1,29.67,North,0,0.0,0.0,39,0.00,,,0.00,WUHU216HW,2013-06-17 18:09:00,
2013-06-17 13:14:00,85.9,57.3,29.67,North,0,0.0,0.0,38,0.00,,,0.00,WUHU216HW,2013-06-17 18:14:00,
2013-06-17 13:19:00,85.7,58.0,29.67,North,0,0.0,0.0,39,0.00,,,0.00,WUHU216HW,2013-06-17 18:19:00,
2013-06-17 13:24:00,85.7,58.0,29.67,North,0,0.0,0.0,39,0.00,,,0.00,WUHU216HW,2013-06-17 18:24:00,
2013-06-17 13:29:00,86.0,59.7,29.67,North,0,0.0,0.0,41,0.00,,,0.00,WUHU216HW,2013-06-17 18:29:00,
2013-06-17 13:34:00,86.2,56.8,29.67,North,0,0.0,0.0,37,0.00,,,0.00,WUHU216HW,2013-06-17 18:34:00,
2013-06-17 13:39:00,86.0,55.9,29.67,North,0,0.0,0.0,36,0.00,,,0.00,WUHU216HW,2013-06-17 18:39:00,
2013-06-17 13:44:00,86.0,57.4,29.67,North,0,0.0,0.0,38,0.00,,,0.00,WUHU216HW,2013-06-17 18:44:00,
2013-06-17 13:49:00,86.0,57.4,29.66,North,0,0.0,0.0,38,0.00,,,0.00,WUHU216HW,2013-06-17 18:49:00,
2013-06-17 13:54:00,86.0,57.4,29.66,North,0,0.0,0.0,38,0.00,,,0.00,WUHU216HW,2013-06-17 18:54:00,
2013-06-17 13:59:00,85.9,57.3,29.66,North,0,0.0,0.0,38,0.00,,,0.00,WUHU216HW,2013-06-17 18:59:00,
2013-06-17 14:04:00,85.7,58.7,29.66,North,0,0.0,0.0,40,0.00,,,0.00,WUHU216HW,2013-06-17 19:04:00,
2013-06-17 14:09:00,85.9,58.9,29.66,North,0,0.0,0.0,40,0.00,,,0.00,WUHU216HW,2013-06-17 19:09:00,
2013-06-17 14:14:00,86.0,57.4,29.65,North,0,0.0,0.0,38,0.00,,,0.00,WUHU216HW,2013-06-17 19:14:00,
2013-06-17 14:19:00,86.0,58.2,29.65,North,0,0.0,0.0,39,0.00,,,0.00,WUHU216HW,2013-06-17 19:19:00,
2013-06-17 14:24:00,86.0,59.7,29.65,North,0,0.0,0.0,41,0.00,,,0.00,WUHU216HW,2013-06-17 19:24:00,
2013-06-17 14:29:00,86.0,58.2,29.65,North,0,0.0,0.0,39,0.00,,,0.00,WUHU216HW,2013-06-17 19:29:00,
2013-06-17 14:34:00,85.9,58.1,29.65,North,0,0.0,0.0,39,0.00,,,0.00,WUHU216HW,2013-06-17 19:34:00,
2013-06-17 14:39:00,85.9,57.3,29.65,North,0,0.0,0.0,38,0.00,,,0.00,WUHU216HW,2013-06-17 19:39:00,
2013-06-17 14:44:00,85.9,58.9,29.65,North,0,0.0,0.0,40,0.00,,,0.00,WUHU216HW,2013-06-17 19:44:00,
2013-06-17 14:49:00,85.9,58.1,29.64,North,0,0.0,0.0,39,0.00,,,0.00,WUHU216HW,2013-06-17 19:49:00,
2013-06-17 14:54:00,86.0,59.7,29.65,North,0,0.0,0.0,41,0.00,,,0.00,WUHU216HW,2013-06-17 19:54:00,
2013-06-17 14:59:00,86.2,60.5,29.65,North,0,0.0,0.0,42,0.00,,,0.00,WUHU216HW,2013-06-17 19:59:00,
2013-06-17 15:04:00,86.4,60.7,29.65,North,0,0.0,0.0,42,0.00,,,0.00,WUHU216HW,2013-06-17 20:04:00,
2013-06-17 15:09:00,86.4,58.6,29.64,North,0,0.0,0.0,39,0.00,,,0.00,WUHU216HW,2013-06-17 20:09:00,
2013-06-17 15:14:00,86.4,60.7,29.64,North,0,0.0,0.0,42,0.00,,,0.00,WUHU216HW,2013-06-17 20:14:00,
2013-06-17 15:19:00,86.6,58.8,29.64,North,0,0.0,0.0,39,0.00,,,0.00,WUHU216HW,2013-06-17 20:19:00,
2013-06-17 15:24:00,86.4,58.6,29.64,North,0,0.0,0.0,39,0.00,,,0.00,WUHU216HW,2013-06-17 20:24:00,
2013-06-17 15:29:00,86.0,56.7,29.64,North,0,0.0,0.0,37,0.00,,,0.00,WUHU216HW,2013-06-17 20:29:00,
2013-06-17 15:34:00,86.0,56.7,29.64,North,0,0.0,0.0,37,0.00,,,0.00,WUHU216HW,2013-06-17 20:34:00,
2013-06-17 15:39:00,86.0,55.9,29.64,North,0,0.0,0.0,36,0.00,,,0.00,WUHU216HW,2013-06-17 20:39:00,
2013-06-17 15:44:00,86.0,55.1,29.64,North,0,0.0,0.0,35,0.00,,,0.00,WUHU216HW,2013-06-17 20:44:00,
2013-06-17 15:49:00,86.0,56.7,29.64,North,0,0.0,0.0,37,0.00,,,0.00,WUHU216HW,2013-06-17 20:49:00,
2013-06-17 15:54:00,86.2,57.6,29.64,North,0,0.0,0.0,38,0.00,,,0.00,WUHU216HW,2013-06-17 20:54:00,
2013-06-17 15:59:00,86.4,57.0,29.64,North,0,0.0,0.0,37,0.00,,,0.00,WUHU216HW,2013-06-17 20:59:00,
2013-06-17 16:04:00,86.6,58.0,29.64,North,0,0.0,0.0,38,0.00,,,0.00,WUHU216HW,2013-06-17 21:04:00,
2013-06-17 16:09:00,86.4,55.4,29.63,North,0,0.0,0.0,35,0.00,,,0.00,WUHU216HW,2013-06-17 21:09:00,
2013-06-17 16:14:00,86.2,55.3,29.64,North,0,0.0,0.0,35,0.00,,,0.00,WUHU216HW,2013-06-17 21:14:00,
2013-06-17 16:19:00,86.2,56.8,29.64,North,0,0.0,0.0,37,0.00,,,0.00,WUHU216HW,2013-06-17 21:19:00,
2013-06-17 16:24:00,86.0,55.1,29.64,North,0,0.0,0.0,35,0.00,,,0.00,WUHU216HW,2013-06-17 21:24:00,
2013-06-17 16:29:00,86.2,55.3,29.64,North,0,0.0,0.0,35,0.00,,,0.00,WUHU216HW,2013-06-17 21:29:00,
2013-06-17 16:34:00,86.2,55.3,29.63,North,0,0.0,0.0,35,0.00,,,0.00,WUHU216HW,2013-06-17 21:34:00,
2013-06-17 16:39:00,86.2,56.8,29.63,North,0,0.0,0.0,37,0.00,,,0.00,WUHU216HW,2013-06-17 21:39:00,
2013-06-17 16:44:00,86.4,57.8,29.63,North,0,0.0,0.0,38,0.00,,,0.00,WUHU216HW,2013-06-17 21:44:00,
2013-06-17 16:49:00,86.4,55.4,29.63,North,0,0.0,0.0,35,0.00,,,0.00,WUHU216HW,2013-06-17 21:49:00,
2013-06-17 16:54:00,86.2,55.3,29.63,North,0,0.0,0.0,35,0.00,,,0.00,WUHU216HW,2013-06-17 21:54:00,
2013-06-17 16:59:00,86.2,56.1,29.63,North,0,0.0,0.0,36,0.00,,,0.00,WUHU216HW,2013-06-17 21:59:00,
2013-06-17 17:04:00,86.4,55.4,29.63,North,0,0.0,0.0,35,0.00,,,0.00,WUHU216HW,2013-06-17 22:04:00,
2013-06-17 17:09:00,86.6,57.2,29.63,North,0,0.0,0.0,37,0.00,,,0.00,WUHU216HW,2013-06-17 22:09:00,
2013-06-17 17:14:00,86.8,57.3,29.62,North,0,0.0,0.0,37,0.00,,,0.00,WUHU216HW,2013-06-17 22:14:00,
2013-06-17 17:19:00,86.8,57.3,29.62,North,0,0.0,0.0,37,0.00,,,0.00,WUHU216HW,2013-06-17 22:19:00,
2013-06-17 17:24:00,86.9,58.2,29.62,North,0,0.0,0.0,38,0.00,,,0.00,WUHU216HW,2013-06-17 22:24:00,
2013-06-17 17:29:00,86.9,56.6,29.62,North,0,0.0,0.0,36,0.00,,,0.00,WUHU216HW,2013-06-17 22:29:00,
2013-06-17 17:34:00,86.8,57.3,29.61,North,0,0.0,0.0,37,0.00,,,0.00,WUHU216HW,2013-06-17 22:34:00,
2013-06-17 17:39:00,86.8,55.7,29.61,North,0,0.0,0.0,35,0.00,,,0.00,WUHU216HW,2013-06-17 22:39:00,
2013-06-17 17:44:00,86.8,57.3,29.61,North,0,0.0,0.0,37,0.00,,,0.00,WUHU216HW,2013-06-17 22:44:00,
2013-06-17 17:49:00,86.8,58.1,29.60,North,0,0.0,0.0,38,0.00,,,0.00,WUHU216HW,2013-06-17 22:49:00,
2013-06-17 17:54:00,86.6,58.0,29.60,North,0,0.0,0.0,38,0.00,,,0.00,WUHU216HW,2013-06-17 22:54:00,
2013-06-17 17:59:00,86.4,57.8,29.60,North,0,0.0,0.0,38,0.00,,,0.00,WUHU216HW,2013-06-17 22:59:00,
2013-06-17 18:04:00,86.4,58.6,29.61,North,0,0.0,0.0,39,0.00,,,0.00,WUHU216HW,2013-06-17 23:04:00,
2013-06-17 18:09:00,86.4,57.8,29.60,North,0,0.0,0.0,38,0.00,,,0.00,WUHU216HW,2013-06-17 23:09:00,
2013-06-17 18:14:00,86.4,57.8,29.60,North,0,0.0,0.0,38,0.00,,,0.00,WUHU216HW,2013-06-17 23:14:00,
2013-06-17 18:19:00,86.4,58.6,29.60,North,0,0.0,0.0,39,0.00,,,0.00,WUHU216HW,2013-06-17 23:19:00,
2013-06-17 18:24:00,86.4,57.8,29.60,North,0,0.0,0.0,38,0.00,,,0.00,WUHU216HW,2013-06-17 23:24:00,
2013-06-17 18:29:00,86.4,57.8,29.61,North,0,0.0,0.0,38,0.00,,,0.00,WUHU216HW,2013-06-17 23:29:00,
2013-06-17 18:34:00,86.2,57.6,29.61,North,0,0.0,0.0,38,0.00,,,0.00,WUHU216HW,2013-06-17 23:34:00,
2013-06-17 18:39:00,86.0,58.2,29.60,North,0,0.0,0.0,39,0.00,,,0.00,WUHU216HW,2013-06-17 23:39:00,
2013-06-17 18:44:00,85.9,58.1,29.60,North,0,0.0,0.0,39,0.00,,,0.00,WUHU216HW,2013-06-17 23:44:00,
2013-06-17 18:50:00,85.7,58.7,29.60,North,0,0.0,0.0,40,0.00,,,0.00,WUHU216HW,2013-06-17 23:50:00,
2013-06-17 18:55:00,85.5,57.8,29.60,North,0,0.0,0.0,39,0.00,,,0.00,WUHU216HW,2013-06-17 23:55:00,
2013-06-17 19:00:00,85.3,58.4,29.61,North,0,0.0,0.0,40,0.00,,,0.00,WUHU216HW,2013-06-18 00:00:00,
2013-06-17 19:05:00,85.3,59.1,29.61,North,0,0.0,0.0,41,0.00,,,0.00,WUHU216HW,2013-06-18 00:05:00,
2013-06-17 19:10:00,85.1,58.9,29.61,North,0,0.0,0.0,41,0.00,,,0.00,WUHU216HW,2013-06-18 00:10:00,
2013-06-17 19:15:00,85.0,58.1,29.61,North,0,0.0,0.0,40,0.00,,,0.00,WUHU216HW,2013-06-18 00:15:00,
2013-06-17 19:20:00,85.0,58.7,29.61,North,0,0.0,0.0,41,0.00,,,0.00,WUHU216HW,2013-06-18 00:20:00,
2013-06-17 19:25:00,84.8,58.5,29.61,North,0,0.0,0.0,41,0.00,,,0.00,WUHU216HW,2013-06-18 00:25:00,
2013-06-17 19:30:00,84.6,58.4,29.61,North,0,0.0,0.0,41,0.00,,,0.00,WUHU216HW,2013-06-18 00:30:00,
2013-06-17 19:35:00,84.6,58.4,29.61,North,0,0.0,0.0,41,0.00,,,0.00,WUHU216HW,2013-06-18 00:35:00,
2013-06-17 19:40:00,84.6,58.4,29.61,North,0,0.0,0.0,41,0.00,,,0.00,WUHU216HW,2013-06-18 00:40:00,
2013-06-17 19:45:00,84.4,58.9,29.60,North,0,0.0,0.0,42,0.00,,,0.00,WUHU216HW,2013-06-18 00:45:00,
2013-06-17 19:50:00,84.2,58.1,29.60,North,0,0.0,0.0,41,0.00,,,0.00,WUHU216HW,2013-06-18 00:50:00,
2013-06-17 19:55:00,83.9,57.1,29.60,North,0,0.0,0.0,40,0.00,,,0.00,WUHU216HW,2013-06-18 00:55:00,
2013-06-17 20:00:00,83.9,57.7,29.60,North,0,0.0,0.0,41,0.00,,,0.00,WUHU216HW,2013-06-18 01:00:00,
2013-06-17 20:05:00,83.7,57.6,29.60,North,0,0.0,0.0,41,0.00,,,0.00,WUHU216HW,2013-06-18 01:05:00,
2013-06-17 20:10:00,83.5,57.4,29.60,North,0,0.0,0.0,41,0.00,,,0.00,WUHU216HW,2013-06-18 01:10:00,
2013-06-17 20:15:00,83.2,57.1,29.61,North,0,0.0,0.0,41,0.00,,,0.00,WUHU216HW,2013-06-18 01:15:00,
2013-06-17 20:20:00,83.0,56.9,29.61,North,0,0.0,0.0,41,0.00,,,0.00,WUHU216HW,2013-06-18 01:20:00,
2013-06-17 20:25:00,82.8,56.7,29.61,North,0,0.0,0.0,41,0.00,,,0.00,WUHU216HW,2013-06-18 01:25:00,
2013-06-17 20:30:00,82.8,56.7,29.61,North,0,0.0,0.0,41,0.00,,,0.00,WUHU216HW,2013-06-18 01:30:00,
2013-06-17 20:35:00,82.4,57.1,29.61,North,0,0.0,0.0,42,0.00,,,0.00,WUHU216HW,2013-06-18 01:35:00,
2013-06-17 20:40:00,82.4,57.1,29.61,North,0,0.0,0.0,42,0.00,,,0.00,WUHU216HW,2013-06-18 01:40:00,
2013-06-17 20:45:00,82.1,57.3,29.61,North,0,0.0,0.0,43,0.00,,,0.00,WUHU216HW,2013-06-18 01:45:00,
2013-06-17 20:50:00,81.9,57.2,29.62,North,0,0.0,0.0,43,0.00,,,0.00,WUHU216HW,2013-06-18 01:50:00,
2013-06-17 20:55:00,81.7,57.6,29.62,North,0,0.0,0.0,44,0.00,,,0.00,WUHU216HW,2013-06-18 01:55:00,
2013-06-17 21:00:00,81.5,57.4,29.62,North,0,0.0,0.0,44,0.00,,,0.00,WUHU216HW,2013-06-18 02:00:00,
2013-06-17 21:05:00,81.7,57.6,29.62,North,0,0.0,0.0,44,0.00,,,0.00,WUHU216HW,2013-06-18 02:05:00,
2013-06-17 21:10:00,81.2,57.2,29.62,North,0,0.0,0.0,44,0.00,,,0.00,WUHU216HW,2013-06-18 02:10:00,
2013-06-17 21:15:00,80.8,57.4,29.62,North,0,0.0,0.0,45,0.00,,,0.00,WUHU216HW,2013-06-18 02:15:00,
2013-06-17 21:20:00,80.5,57.1,29.62,North,0,0.0,0.0,45,0.00,,,0.00,WUHU216HW,2013-06-18 02:20:00,
2013-06-17 21:25:00,80.3,56.9,29.62,North,0,0.0,0.0,45,0.00,,,0.00,WUHU216HW,2013-06-18 02:25:00,
2013-06-17 21:30:00,80.3,56.9,29.63,North,0,0.0,0.0,45,0.00,,,0.00,WUHU216HW,2013-06-18 02:30:00,
2013-06-17 21:35:00,80.1,57.3,29.63,North,0,0.0,0.0,46,0.00,,,0.00,WUHU216HW,2013-06-18 02:35:00,
2013-06-17 21:40:00,79.7,57.1,29.63,North,0,0.0,0.0,46,0.00,,,0.00,WUHU216HW,2013-06-18 02:40:00,
2013-06-17 21:45:00,79.6,56.9,29.64,North,0,0.0,0.0,46,0.00,,,0.00,WUHU216HW,2013-06-18 02:45:00,
2013-06-17 21:50:00,79.6,56.9,29.64,North,0,0.0,0.0,46,0.00,,,0.00,WUHU216HW,2013-06-18 02:50:00,
2013-06-17 21:55:00,79.4,56.7,29.64,North,0,0.0,0.0,46,0.00,,,0.00,WUHU216HW,2013-06-18 02:55:00,
2013-06-17 22:00:00,79.2,56.0,29.65,North,0,0.0,0.0,45,0.00,,,0.00,WUHU216HW,2013-06-18 03:00:00,
2013-06-17 22:05:00,79.0,55.8,29.65,North,0,0.0,0.0,45,0.00,,,0.00,WUHU216HW,2013-06-18 03:05:00,
2013-06-17 22:10:00,79.0,55.8,29.65,North,0,0.0,0.0,45,0.00,,,0.00,WUHU216HW,2013-06-18 03:10:00,
2013-06-17 22:15:00,79.0,55.8,29.65,North,0,0.0,0.0,45,0.00,,,0.00,WUHU216HW,2013-06-18 03:15:00,
2013-06-17 22:20:00,78.8,55.0,29.66,North,0,0.0,0.0,44,0.00,,,0.00,WUHU216HW,2013-06-18 03:20:00,
2013-06-17 22:25:00,78.8,55.0,29.66,North,0,0.0,0.0,44,0.00,,,0.00,WUHU216HW,2013-06-18 03:25:00,
2013-06-17 22:30:00,78.7,54.8,29.66,North,0,0.0,0.0,44,0.00,,,0.00,WUHU216HW,2013-06-18 03:30:00,
2013-06-17 22:35:00,78.5,54.7,29.66,North,0,0.0,0.0,44,0.00,,,0.00,WUHU216HW,2013-06-18 03:35:00,
2013-06-17 22:40:00,78.1,55.0,29.65,North,0,0.0,0.0,45,0.00,,,0.00,WUHU216HW,2013-06-18 03:40:00,
2013-06-17 22:45:00,78.1,55.0,29.66,North,0,0.0,0.0,45,0.00,,,0.00,WUHU216HW,2013-06-18 03:45:00,
2013-06-17 22:50:00,77.8,54.6,29.66,North,0,0.0,0.0,45,0.00,,,0.00,WUHU216HW,2013-06-18 03:50:00,
2013-06-17 22:55:00,77.6,55.1,29.66,North,0,0.0,0.0,46,0.00,,,0.00,WUHU216HW,2013-06-18 03:55:00,
2013-06-17 23:00:00,77.4,54.9,29.66,North,0,0.0,0.0,46,0.00,,,0.00,WUHU216HW,2013-06-18 04:00:00,
2013-06-17 23:05:00,77.2,54.8,29.66,North,0,0.0,0.0,46,0.00,,,0.00,WUHU216HW,2013-06-18 04:05:00,
2013-06-17 23:10:00,77.0,55.3,29.66,North,0,0.0,0.0,47,0.00,,,0.00,WUHU216HW,2013-06-18 04:10:00,
2013-06-17 23:15:00,76.9,55.1,29.66,North,0,0.0,0.0,47,0.00,,,0.00,WUHU216HW,2013-06-18 04:15:00,
2013-06-17 23:20:00,76.7,54.9,29.66,North,0,0.0,0.0,47,0.00,,,0.00,WUHU216HW,2013-06-18 04:20:00,
2013-06-17 23:25:00,76.5,54.7,29.66,North,0,0.0,0.0,47,0.00,,,0.00,WUHU216HW,2013-06-18 04:25:00,
2013-06-17 23:30:00,76.5,54.7,29.66,North,0,0.0,0.0,47,0.00,,,0.00,WUHU216HW,2013-06-18 04:30:00,
2013-06-17 23:35:00,76.3,54.5,29.66,North,0,0.0,0.0,47,0.00,,,0.00,WUHU216HW,2013-06-18 04:35:00,
2013-06-17 23:40:00,76.1,54.5,29.66,North,0,0.0,0.0,47,0.00,,,0.00,WUHU216HW,2013-06-18 04:40:00,
2013-06-17 23:45:00,76.0,54.3,29.66,North,0,0.0,0.0,47,0.00,,,0.00,WUHU216HW,2013-06-18 04:45:00,
2013-06-17 23:50:00,75.8,54.1,29.66,North,0,0.0,0.0,47,0.00,,,0.00,WUHU216HW,2013-06-18 04:50:00,
2013-06-17 23:55:00,75.6,54.5,29.66,North,0,0.0,0.0,48,0.00,,,0.00,WUHU216HW,2013-06-18 04:55:00,